Home   Weather   Kristiansand   Past weeks

Flag for Norway Past Weather in Kristiansand, Norway — Yesterday and Last 2 Weeks

Now
41 °F

Sunny.


Feels Like: 36 °F
Forecast: 38 / 49 °F
Wind: 7 mph from Northeast

Location: Kristiansand / Kjevik

Current Time: Apr 30, 2017 at 9:21:58 am

Latest Report: Apr 30, 2017 at 8:20 am


Visibility: 10 mi

Pressure: 30.18 "Hg

Humidity: 70%

Dew Point: 32 °F

Location of KristiansandLocation

Past Weather in Kristiansand — Graph

°F

Kristiansand Temperature Yesterday

Maximum temperature yesterday: 50 °F (at 3:20 pm)
Minimum temperature yesterday: 32 °F (at 11:50 pm)
Average temperature yesterday: 43 °F

High & Low Weather Summary for the Past Weeks

 TemperatureHumidityPressure
High54 °F (Apr 20, 4:20 pm)100% (Apr 16, 11:20 pm)30.57 "Hg (Apr 16, 11:20 pm)
Low27 °F (Apr 16, 6:50 am)26% (Apr 22, 12:20 pm)29.39 "Hg (Apr 24, 8:20 am)
Average40 °F71%29.95 "Hg
* Reported Apr 15 7:20 am — Apr 30 7:50 am, Kristiansand, Weather by CustomWeather, © 2017

Note: Actual official high and low records may vary slightly from our data, if they occured in-between our weather recording intervals... More about our weather records

Advertising

Kristiansand Weather History for the Previous 24 Hours

Scroll right to see more
 ConditionsComfort  
Time TempWeatherWind HumidityBarometerVisibility
7:50 am
Sun, Apr 30
37 °FSunny.5 mph75%30.18 "Hg10 mi
7:20 am34 °FSunny.3 mph87%30.18 "Hg10 mi
6:50 am30 °FPassing clouds.3 mph93%30.18 "HgN/A
6:20 am32 °FSunny.3 mph87%30.18 "Hg10 mi
5:50 am30 °FSunny.5 mph93%30.18 "Hg10 mi
5:20 am30 °FPassing clouds.6 mph93%30.18 "HgN/A
4:50 am30 °FPassing clouds.6 mph93%30.18 "HgN/A
4:20 am30 °FPassing clouds.5 mph93%30.18 "HgN/A
3:50 am30 °FPassing clouds.6 mph93%30.18 "HgN/A
3:20 am32 °FPassing clouds.5 mph87%30.18 "HgN/A
2:50 am30 °FMostly cloudy.6 mph93%30.18 "HgN/A
2:20 am30 °FPartly cloudy.6 mph93%30.18 "HgN/A
1:50 am32 °FPassing clouds.5 mph87%30.18 "HgN/A
1:20 am34 °FPassing clouds.5 mph87%30.18 "HgN/A
12:50 am32 °FPassing clouds.5 mph93%30.18 "HgN/A
12:20 am32 °FPassing clouds.7 mph93%30.18 "HgN/A
11:50 pm
Sat, Apr 29
32 °FPassing clouds.7 mph93%30.18 "HgN/A
11:20 pm36 °FPartly cloudy.5 mph81%30.18 "HgN/A
10:50 pm36 °FClear.6 mph81%30.18 "Hg10 mi
10:20 pm37 °FClear.6 mph75%30.18 "Hg10 mi
9:20 pm45 °FClear.5 mph53%30.15 "Hg10 mi
8:50 pm46 °FSunny.8 mph50%30.15 "Hg10 mi
8:20 pm46 °FPassing clouds.12 mph46%30.15 "HgN/A
7:50 pm48 °FSunny.13 mph46%30.15 "Hg10 mi
7:20 pm48 °FSunny.9 mph46%30.15 "Hg10 mi
6:50 pm48 °FPassing clouds.13 mph46%30.15 "HgN/A
6:20 pm48 °FPassing clouds.10 mph46%30.15 "HgN/A
5:50 pm48 °FSunny.15 mph46%30.15 "Hg10 mi
5:20 pm48 °FScattered clouds.17 mph46%30.15 "HgN/A
4:50 pm50 °FScattered clouds.16 mph50%30.15 "HgN/A
4:20 pm50 °FScattered clouds.15 mph50%30.15 "HgN/A
3:50 pm50 °FPassing clouds.13 mph47%30.15 "HgN/A
3:20 pm50 °FPassing clouds.15 mph43%30.15 "HgN/A
2:20 pm48 °FScattered clouds.12 mph43%30.15 "HgN/A
1:50 pm46 °FScattered clouds.16 mph46%30.15 "HgN/A
1:20 pm48 °FPartly sunny.14 mph46%30.15 "HgN/A
12:50 pm46 °FPartly sunny.14 mph53%30.15 "HgN/A
12:20 pm45 °FScattered clouds.14 mph66%30.15 "HgN/A
11:50 am43 °FPartly sunny.15 mph71%30.15 "HgN/A
11:20 am41 °FPartly sunny.17 mph70%30.15 "HgN/A
10:50 am41 °FBroken clouds.18 mph76%30.15 "HgN/A
10:20 am41 °FCloudy.15 mph81%30.12 "HgN/A
9:20 am41 °FSprinkles. Partly sunny.15 mph87%30.12 "HgN/A
Weather by CustomWeather, © 2017

See weather overviewHow to use our weather pages